EHI
0 0 0 0 0 0 0 0 0 0 0 0 0 0 0 0 0 0 0 3 14 23 26 23 17 10 9 14 21 24 24 24 25 26 27 24 21 19 22 24 21 15 12
0 0 0 0 0 0 0 0 0 0 0 0 0 0 0 0 0 0 0 2 9 22 33 36 27 15 8 10 13 16 20 23 26 28 27 23 19 17 20 23 22 20 19
0 0 0 0 0 0 0 0 0 0 0 0 0 0 0 0 0 0 0 0 3 13 27 37 34 21 8 4 4 7 11 15 17 18 18 16 13 12 13 16 17 19 22
0 0 0 0 0 0 0 0 0 0 0 0 0 0 0 0 0 0 0 0 0 3 10 18 23 17 6 1 0 1 3 5 5 5 7 7 6 6 7 8 8 11 14
0 0 0 0 0 0 0 0 0 0 0 0 0 0 0 0 0 0 0 0 0 0 1 3 7 6 2 0 0 0 0 0 0 0 1 2 2 2 3 3 3 4 5
0 0 0 0 0 0 0 0 0 0 0 0 0 0 0 0 0 0 0 0 0 0 0 0 1 1 0 0 0 0 0 0 0 0 0 0 0 0 1 1 2 2 2
0 0 0 0 0 0 0 0 0 0 0 0 0 0 0 0 0 0 0 0 0 0 0 0 0 0 0 0 0 0 0 0 0 0 0 0 0 0 0 0 0 0 0
0 0 0 0 0 0 0 0 0 0 0 0 0 0 0 0 0 0 0 0 0 0 0 0 0 0 0 0 0 0 0 0 0 0 0 0 0 0 0 0 0 0 0
0 0 0 0 0 0 0 0 0 0 0 0 0 0 0 0 0 0 0 0 0 0 0 0 0 0 0 0 0 0 0 0 0 0 0 0 0 0 0 0 0 0 0
0 0 0 0 0 0 0 0 0 0 0 0 0 0 0 0 0 0 0 0 0 0 0 0 0 0 0 0 0 0 0 0 0 0 0 0 0 0 0 0 0 0 0
0 0 0 0 0 0 0 0 0 0 0 0 0 0 0 0 0 0 0 0 0 0 0 0 0 0 0 0 0 0 0 0 0 0 0 0 0 0 0 0 0 0 0
0 0 0 0 0 0 0 0 0 0 0 0 0 0 0 0 0 0 0 0 0 0 0 0 0 0 0 0 0 0 0 0 0 0 0 0 0 0 0 0 0 0 0
0 0 0 0 0 0 0 0 0 0 0 0 0 0 0 0 0 0 0 0 0 0 0 0 0 0 0 0 0 0 0 0 0 0 0 0 0 0 0 0 0 0 0
0 0 0 0 0 0 0 0 0 0 0 0 0 0 0 0 0 0 0 0 0 0 0 0 0 0 0 0 0 0 0 0 0 0 0 0 0 0 0 0 0 0 0
0 0 0 0 0 0 0 0 0 0 0 0 0 0 0 0 0 0 0 0 0 0 0 0 0 0 0 0 0 0 0 0 0 0 0 0 0 0 0 0 0 0 0
0 0 0 0 0 0 0 0 0 0 0 0 0 0 0 0 0 0 0 0 0 0 0 0 0 0 0 0 0 0 0 0 0 0 0 0 0 0 0 0 0 0 0
0 0 0 0 0 0 0 0 0 0 0 0 0 0 0 0 0 0 0 0 0 0 0 0 0 0 0 0 0 0 0 0 0 0 0 0 0 0 0 0 0 0 0
0 0 0 0 0 0 0 0 0 0 0 0 0 0 0 0 0 0 0 0 0 0 0 0 0 0 0 0 0 0 0 0 0 0 0 0 0 0 0 0 0 0 0
0 0 0 0 0 0 0 0 0 0 0 0 0 0 0 0 0 0 0 0 0 0 0 0 0 0 0 0 0 0 0 0 0 0 0 0 0 0 0 0 0 0 0
0 0 0 0 0 0 0 0 0 0 0 0 0 0 0 0 0 0 0 0 0 0 0 0 0 0 0 0 0 0 0 0 0 0 0 0 0 0 0 0 0 0 0
0 0 0 0 0 0 0 0 0 0 0 0 0 0 0 0 0 0 0 0 0 0 0 0 0 0 0 0 0 0 0 0 0 0 0 0 0 0 0 0 0 0 0
0 0 0 0 0 0 0 0 0 0 0 0 0 0 0 0 0 0 0 0 0 0 0 0 0 0 0 0 0 0 0 0 0 0 0 0 0 0 0 0 0 0 0
0 0 0 0 0 0 0 0 0 0 0 0 0 0 0 0 0 0 0 0 0 0 0 0 0 0 0 0 0 0 0 0 0 0 0 0 0 0 0 0 0 0 0
0 0 0 0 0 0 0 0 0 0 0 0 0 0 0 0 0 0 0 0 0 0 0 0 0 0 0 0 0 0 0 0 0 0 0 0 0 0 0 0 0 0 0
0 0 0 0 0 0 0 0 0 0 0 0 0 0 0 0 0 0 0 0 0 0 0 0 0 0 0 0 0 0 0 0 0 0 0 0 0 0 0 0 0 0 0
0 0 0 0 0 0 0 0 0 0 0 0 0 0 0 0 0 0 0 0 0 0 0 0 0 0 0 0 0 0 0 0 0 0 0 0 0 0 0 0 0 0 0
Wind_Speed
5 5 4 3 4 3 3 3 2 2 1 1 1 2 3 2 2 2 2 9 10 10 11 11 11 10 9 8 7 6 5 5 5 4 4 5 6 7 8 9 11 12 13
5 5 4 3 3 3 3 2 2 3 2 3 4 4 4 3 1 1 2 4 9 10 11 11 11 10 9 7 5 4 3 3 3 3 3 4 4 5 6 7 9 11 13
5 5 3 2 1 2 4 3 4 4 4 4 5 5 4 4 3 2 2 2 4 7 10 9 9 8 8 7 6 5 4 4 5 5 5 6 5 5 6 6 8 9 11
6 5 4 3 3 4 4 4 3 4 4 4 4 4 4 4 4 3 2 2 3 3 5 8 7 7 7 7 6 6 6 6 6 7 7 7 7 6 6 7 8 8 9
7 6 5 4 4 5 4 4 4 3 3 4 4 3 4 4 4 5 5 5 4 3 2 4 4 3 4 5 6 7 8 8 9 10 10 10 10 8 8 8 9 10 11
8 7 5 5 5 5 4 4 4 4 3 3 3 4 3 3 3 4 5 5 6 6 5 5 4 5 7 8 8 8 9 11 11 11 12 13 12 10 9 9 8 10 11
8 7 6 5 5 5 4 4 3 5 4 3 4 4 4 3 3 3 4 4 6 6 6 5 4 3 4 8 9 10 11 13 14 14 15 14 13 11 11 11 11 11 13
8 8 7 5 5 5 6 6 4 3 3 4 3 2 4 5 4 3 3 4 5 5 6 7 5 5 4 3 6 12 13 14 15 16 17 16 14 13 12 12 12 13 14
8 8 7 6 6 5 5 5 5 4 3 4 3 3 2 2 5 4 3 4 5 4 5 4 6 5 5 4 4 9 14 14 16 17 18 17 15 14 14 14 14 14 16
7 7 7 7 6 5 5 4 4 3 3 2 2 2 2 2 1 4 5 3 4 4 4 5 5 5 5 4 7 13 15 15 16 17 19 19 19 18 17 16 15 16 17
5 6 7 6 6 4 4 4 3 3 2 2 1 1 1 1 1 2 4 6 5 4 3 4 4 4 5 5 4 10 16 15 16 17 18 19 20 20 19 18 17 17 17
4 5 6 6 5 3 3 2 2 2 1 1 1 1 1 1 2 2 4 4 5 6 5 4 4 5 5 5 8 18 19 17 15 16 17 18 19 19 19 19 18 17 18
3 4 5 4 3 2 2 2 1 1 1 2 3 3 3 3 3 3 3 5 5 4 4 4 5 5 6 5 7 19 19 19 16 15 16 17 18 19 19 19 18 18 18
4 4 4 3 2 1 1 2 1 2 2 3 5 5 4 5 4 4 4 5 7 5 4 6 4 5 5 5 9 16 10 17 17 16 16 17 18 19 20 20 20 19 18
4 4 3 2 1 1 2 2 2 3 3 3 4 5 4 5 4 5 4 4 5 9 7 4 3 4 5 5 10 7 6 14 20 20 19 18 19 20 21 21 21 20 19
4 3 2 1 1 1 2 2 2 4 4 4 3 3 4 3 4 3 3 3 3 5 7 3 4 5 6 9 14 9 8 22 23 23 23 21 20 20 21 22 22 22 21
4 3 2 2 4 6 6 6 6 6 6 5 5 5 5 5 3 3 3 3 4 4 8 6 4 4 6 8 9 8 9 9 10 21 22 21 19 19 20 20 20 20 20
6 6 7 8 9 8 7 6 6 5 5 5 5 5 6 6 6 5 4 5 5 5 6 10 5 4 6 8 8 9 10 10 7 15 17 17 16 15 14 14 14 15 15
7 7 7 7 7 6 5 4 3 4 4 5 5 6 7 6 7 6 6 6 6 7 6 7 8 5 5 6 7 9 10 8 10 11 13 14 14 13 11 10 10 11 12
7 6 6 6 5 4 3 3 3 4 5 6 6 6 7 7 7 8 7 7 7 7 7 8 9 7 6 6 6 7 8 6 8 9 12 14 15 15 13 12 12 13 13
6 5 5 4 2 2 1 2 3 5 6 7 8 8 8 12 15 11 10 8 7 7 8 8 9 8 7 6 6 6 9 8 8 7 8 8 7 6 8 11 14 15 14
5 5 4 2 1 1 1 4 6 5 6 8 9 9 10 11 14 18 21 20 17 13 10 9 8 9 9 8 7 8 8 9 8 5 6 7 5 6 6 6 12 15 15
4 4 3 2 2 3 4 6 10 7 7 8 8 8 10 11 14 10 15 19 18 21 20 13 11 10 10 9 9 11 10 10 10 7 6 8 6 8 7 8 14 14 13
3 2 2 3 2 3 5 7 11 7 7 8 9 9 10 11 11 12 12 12 11 12 13 9 8 10 10 10 10 10 10 9 9 8 6 6 4 4 5 5 10 12 11
3 2 3 3 3 3 5 7 9 6 6 9 9 10 11 10 13 16 13 11 11 10 11 11 12 12 13 14 11 6 5 6 6 4 2 3 2 2 2 3 4 8 9
2 3 4 4 3 3 6 9 11 4 7 8 9 9 12 12 16 17 11 9 10 9 8 8 8 8 7 6 6 4 4 4 4 3 2 2 2 2 2 2 1 2 4
Wind_Direction
188 188 196 198 209 202 198 217 224 208 199 213 78 72 69 99 144 172 213 213 215 219 217 214 213 214 213 211 211 213 219 227 233 237 240 243 244 242 240 236 228 221 221
178 181 182 181 196 184 169 155 136 113 91 75 53 47 51 47 53 186 241 238 235 234 231 228 227 227 226 225 225 231 243 262 271 279 281 278 274 269 263 255 247 237 232
157 151 140 143 149 123 113 96 82 70 61 46 31 19 21 23 28 8 319 294 284 268 259 250 243 235 234 236 239 247 259 273 283 288 289 288 289 292 291 281 271 260 250
132 122 112 96 79 78 82 80 63 59 45 31 12 0 5 3 5 359 353 312 286 279 276 263 247 235 235 245 256 264 270 275 278 282 286 290 292 291 293 297 295 289 278
108 102 93 83 78 72 63 68 57 61 43 17 358 3 1 352 346 355 1 358 343 321 311 307 295 275 271 279 290 292 290 287 286 285 282 278 280 286 289 292 292 290 288
97 94 84 74 72 72 60 61 65 53 49 17 1 354 336 340 4 24 25 26 23 21 20 20 11 9 9 356 344 327 310 297 292 289 285 279 277 276 276 283 294 297 293
89 85 83 68 61 67 62 57 66 53 32 15 26 351 337 355 37 54 39 36 24 16 19 25 19 18 3 7 354 335 318 305 298 293 287 283 279 274 271 272 279 286 290
87 85 80 73 65 69 57 48 54 64 29 28 56 32 352 343 350 10 13 28 17 11 14 14 13 9 354 346 333 333 325 314 302 293 287 283 276 270 270 272 276 282 285
81 87 82 76 69 75 72 63 60 74 51 24 50 91 72 313 316 324 355 20 11 9 0 357 9 3 360 351 330 335 331 321 308 297 287 280 274 269 268 267 272 279 282
90 92 89 84 80 82 83 75 76 83 87 50 29 52 125 178 252 314 323 341 355 356 345 347 343 335 336 332 330 335 335 330 321 309 296 283 274 269 265 262 264 271 276
92 96 94 91 91 91 93 86 83 78 97 116 93 45 38 39 123 181 295 315 321 311 303 304 306 308 310 310 312 314 324 323 320 314 308 295 281 272 265 258 256 262 270
88 90 94 92 99 106 106 103 95 83 109 153 177 178 166 215 254 224 251 278 291 294 299 297 295 293 291 291 296 308 307 306 306 306 303 299 294 284 274 263 258 262 269
100 95 93 94 100 112 106 91 77 7 269 248 240 237 227 226 224 229 252 270 269 273 282 284 275 281 288 286 293 299 300 299 296 294 292 291 291 288 282 273 266 265 269
111 111 104 100 109 114 109 133 176 251 245 246 248 243 243 249 241 239 247 267 283 278 258 261 271 266 276 282 283 294 291 296 298 296 291 286 283 281 278 274 270 266 263
109 108 113 118 142 187 207 205 232 258 262 260 264 266 265 269 269 264 258 250 270 292 288 257 267 271 277 278 283 285 280 295 298 293 288 281 276 273 270 267 265 262 258
103 112 117 141 233 285 309 331 331 336 345 343 333 332 316 300 296 290 278 267 249 268 287 256 254 267 283 294 296 296 289 295 292 288 284 280 275 270 265 261 258 254 251
89 73 56 45 39 38 40 46 42 35 27 10 359 348 324 311 301 295 284 271 259 254 282 285 253 267 275 279 289 286 283 276 275 279 280 277 275 271 265 260 257 252 247
59 58 63 70 74 68 59 52 32 22 6 345 331 323 312 311 301 285 275 265 260 251 259 283 282 271 270 275 278 281 291 289 281 285 287 286 284 281 273 265 260 253 245
65 65 74 82 83 77 66 53 33 6 341 320 310 305 300 300 297 289 280 271 267 270 255 269 279 267 266 275 283 286 288 286 290 292 292 292 291 287 286 280 274 263 247
69 72 82 95 98 93 76 40 10 346 329 315 305 298 293 290 285 285 286 275 275 275 270 270 275 275 269 268 268 279 288 279 281 286 287 284 278 275 273 273 269 262 248
75 76 84 99 116 108 63 24 350 338 325 315 309 301 296 305 308 307 304 295 289 282 279 276 277 279 276 273 271 270 280 282 275 267 270 270 265 260 264 266 265 261 250
58 60 66 69 36 4 321 344 347 328 316 310 307 304 303 304 306 309 307 304 299 293 289 282 281 280 280 273 273 274 277 281 283 252 248 263 251 254 252 244 251 253 247
57 57 49 33 354 301 303 333 341 334 312 304 300 302 308 308 309 299 300 302 298 292 287 283 280 278 278 275 276 277 274 275 276 270 264 268 251 253 250 252 251 245 240
52 37 13 3 356 344 353 348 340 332 309 302 301 299 299 301 303 306 306 299 292 288 284 282 271 271 273 274 272 277 281 279 273 271 260 265 255 250 254 243 244 236 229
35 12 6 16 22 1 359 345 344 321 310 308 306 305 306 304 308 315 313 303 299 297 297 288 278 280 280 282 284 284 285 292 295 286 272 268 283 283 275 258 243 231 224
38 27 25 24 25 353 339 342 344 320 315 315 310 307 310 311 316 321 320 308 304 305 308 309 305 301 297 298 307 302 304 302 305 296 333 317 293 302 300 290 253 222 223